EXPRESS-AM22 (SESAT 2)

Last updated on March 6, 2019, 3:10 a.m. UTC

1 28134U 03060A   19064.19771608  .00000078  00000-0  00000+0 0  9990
2 28134   1.8091  88.5868 0004829  74.0258 105.5101  0.99556837 55589
UTC
Height (km)
Latitude
Longitude
Inclination
Orbital Period
UTC large
Height (km)
Speed (km/s)
/
Latitude / Longitude
Inclination (degrees)
Orbital Period (minutes)
Azimuth
Elevation
Range (km)
Doppler Factor
iOS Compass Heading
iOS Angle

Next 30 passes for location: Hong Kong

Rise time Rise Azimuth (degrees) Set time Set Azimuth (degrees) Duration Max altitude (degrees)

No matching passes for this satellites